Location: Valdosta
(30.8330°N, 83.2790°W)
Time: 06:20:31
(UTC-04:00)

Amateur Radio Satellites - All Passes

Search period start: 30 September 2014 05:50
Search period end: 01 October 2014 05:50
Location: Valdosta, 30.8330°N, 83.2790°W

Satellite Date Start Highest point End Downlink Frequencies (MHz)
Time Altitude Azimuth
AO-7 30 Sep 05:51:57 06:00:16 77° 106° (ESE) 06:08:34 29.400 - 29.500 MHz
OPAL 30 Sep 05:55:23 06:00:32 67° 256° (WSW) 06:05:44 ?
SO-50 30 Sep 06:00:17 06:05:08 75° 244° (WSW) 06:09:59 436.795 FM
MaSat-1 30 Sep 06:02:08 06:06:52 52° 108° (ESE) 06:11:32 437.345 MHz
RS-15 30 Sep 06:04:04 06:10:28 17° 324° (NW) 06:16:54 29.354 - 29.394 USB, Beacon 29.352 USB
TMSAT-1 30 Sep 06:09:28 06:10:54 11° 296° (WNW) 06:12:20 436.925 FM
ISS 30 Sep 06:25:08 06:28:17 40° 42° (NE) 06:31:26 145.800 FM
UOSAT-12 30 Sep 06:35:23 06:38:52 20° 53° (NE) 06:42:18 437.025 FM, 437.400 FM
Hamsat 30 Sep 06:49:21 06:53:05 31° 98° (E) 06:56:47 145.90 MHz
Uosat F 30 Sep 06:52:45 06:56:46 24° 291° (WNW) 07:00:46 435.120 FM
STRAND 1 30 Sep 06:56:07 07:00:24 28° 70° (ENE) 07:04:43 ?
JAS-2 30 Sep 07:06:32 07:13:24 71° 102° (ESE) 07:20:58 435.800 - 435.900 CW/SSB, 435.910 FM
MaSat-1 30 Sep 07:40:50 07:43:35 15° 301° (WNW) 07:46:18 437.345 MHz
AO-7 30 Sep 07:46:43 07:52:08 20° 301° (WNW) 07:57:35 29.400 - 29.500 MHz
ISS 30 Sep 08:03:15 08:04:40 12° 235° (SW) 08:06:04 145.800 FM
SO-67 30 Sep 08:11:42 08:14:53 35° 98° (E) 08:18:03 435.3500 MHz FM
UOSAT-12 30 Sep 08:14:49 08:19:05 35° 248° (WSW) 08:23:16 437.025 FM, 437.400 FM
Hamsat 30 Sep 08:26:17 08:28:44 15° 290° (WNW) 08:31:10 145.90 MHz
STRAND 1 30 Sep 08:35:20 08:39:29 25° 263° (W) 08:43:40 ?
JAS-2 30 Sep 08:53:32 08:57:54 18° 294° (WNW) 09:02:32 435.800 - 435.900 CW/SSB, 435.910 FM
HO-68 30 Sep 09:25:16 09:30:33 22° 96° (E) 09:35:49 435.675 MHz FM
Sapphire 30 Sep 09:27:57 09:32:26 27° 107° (ESE) 09:36:56 437.095 MHz 1200 baud AX-25 AFSK
PCSat 30 Sep 09:52:45 09:57:59 54° 111° (ESE) 10:03:16 145.825 MHz
Oscar 11 30 Sep 10:39:06 10:42:52 29° 97° (E) 10:46:35 145.825 FM, Beacon 2401.500 USB
RS-15 30 Sep 10:41:56 10:49:41 21° 41° (NE) 10:57:35 29.354 - 29.394 USB, Beacon 29.352 USB
FUNcube-1 30 Sep 11:01:16 11:04:38 21° 95° (E) 11:07:57 145.950 - 145.970 MHz USB
UKube-1 30 Sep 11:07:08 11:11:31 87° 101° (E) 11:15:53 145.840 MHz, 145.915 MHz
Sapphire 30 Sep 11:10:58 11:15:41 31° 301° (WNW) 11:20:27 437.095 MHz 1200 baud AX-25 AFSK
HO-68 30 Sep 11:11:30 11:18:28 56° 289° (WNW) 11:25:25 435.675 MHz FM
PCSat 30 Sep 11:38:14 11:41:42 17° 306° (NW) 11:45:11 145.825 MHz
ZACube-1 30 Sep 11:45:18 11:49:50 74° 101° (ESE) 11:54:14 437.345 MHz
Oscar 11 30 Sep 12:15:53 12:18:47 18° 290° (WNW) 12:21:39 145.825 FM, Beacon 2401.500 USB
FUNcube-1 30 Sep 12:37:10 12:40:57 27° 289° (WNW) 12:44:39 145.950 - 145.970 MHz USB
RS-15 30 Sep 12:52:36 13:03:53 81° 63° (ENE) 13:15:39 29.354 - 29.394 USB, Beacon 29.352 USB
Oscar 16 30 Sep 13:08:35 13:11:01 13° 66° (ENE) 13:13:26 437.025 USB, Beacon 2401.1428
Saudisat 1A 30 Sep 13:43:36 13:46:26 17° 109° (ESE) 13:49:16 436.775 MHz
JAS-1B 30 Sep 13:53:44 14:00:28 32° 71° (ENE) 14:06:17 435.800 - 435.900 CW/SSB
Oscar 19 30 Sep 14:03:53 14:08:52 50° 74° (ENE) 14:13:53 437.125 CW, 437.150 USB
ITAMSAT 1 30 Sep 14:14:53 14:19:02 25° 69° (ENE) 14:23:12 435.822 SSB
Uribyol 2 30 Sep 14:15:46 14:20:05 27° 70° (ENE) 14:24:25 436.500 FM
Oscar 16 30 Sep 14:44:42 14:49:48 58° 259° (W) 14:54:56 437.025 USB, Beacon 2401.1428
AO-27 30 Sep 14:52:01 14:57:07 63° 75° (ENE) 15:02:14 436.795 MHz FM
AO-Echo 30 Sep 15:00:40 15:05:22 87° 257° (WSW) 15:10:05 ?
AO-7 30 Sep 15:01:15 15:01:36 10° 53° (NE) 15:01:57 29.400 - 29.500 MHz
RS-15 30 Sep 15:07:29 15:15:02 21° 258° (WSW) 15:22:51 29.354 - 29.394 USB, Beacon 29.352 USB
Gurwin Techsat 1B 30 Sep 15:12:43 15:17:45 46° 73° (ENE) 15:22:47 435.225 FM
Saudisat 1A 30 Sep 15:21:42 15:25:41 34° 302° (WNW) 15:29:43 436.775 MHz
TMSAT-1 30 Sep 15:41:38 15:46:50 65° 75° (ENE) 15:52:05 436.925 FM
JAS-1B 30 Sep 15:43:22 15:50:53 40° 259° (W) 15:57:18 435.800 - 435.900 CW/SSB
Oscar 19 30 Sep 15:45:39 15:48:24 14° 266° (W) 15:51:09 437.125 CW, 437.150 USB
ITAMSAT 1 30 Sep 15:53:52 15:58:20 30° 262° (W) 16:02:50 435.822 SSB
KITSAT 1 30 Sep 15:54:36 15:55:58 11° 100° (E) 15:57:20 435.175 FM
Uribyol 2 30 Sep 15:55:05 15:59:25 27° 263° (W) 16:03:47 436.500 FM
MaSat-1 30 Sep 16:00:04 16:02:34 21° 61° (ENE) 16:04:49 437.345 MHz
Uosat F 30 Sep 16:22:18 16:26:10 23° 69° (ENE) 16:30:03 435.120 FM
AO-27 30 Sep 16:35:37 16:36:57 11° 267° (W) 16:38:17 436.795 MHz FM
AO-7 30 Sep 16:44:37 16:52:47 65° 70° (ENE) 17:00:57 29.400 - 29.500 MHz
Gurwin Techsat 1B 30 Sep 16:54:34 16:57:51 17° 266° (W) 17:01:08 435.225 FM
JAS-2 30 Sep 17:18:12 17:19:55 12° 64° (ENE) 17:21:39 435.800 - 435.900 CW/SSB, 435.910 FM
TMSAT-1 30 Sep 17:25:40 17:27:05 11° 268° (W) 17:28:31 436.925 FM
Hamsat 30 Sep 17:39:10 17:41:02 13° 69° (ENE) 17:42:53 145.90 MHz
KITSAT 1 30 Sep 17:42:04 17:50:08 80° 113° (ESE) 17:58:13 435.175 FM
Uosat F 30 Sep 18:00:23 18:04:44 30° 262° (W) 18:09:07 435.120 FM
OPAL 30 Sep 18:11:02 18:15:59 53° 102° (ESE) 18:20:51 ?
AO-7 30 Sep 18:39:57 18:45:55 22° 264° (W) 18:51:55 29.400 - 29.500 MHz
PCSat 30 Sep 18:47:47 18:50:49 15° 53° (NE) 18:53:49 145.825 MHz
JAS-2 30 Sep 18:59:18 19:04:23 60° 259° (W) 19:09:36 435.800 - 435.900 CW/SSB, 435.910 FM
Hamsat 30 Sep 19:12:27 19:16:34 42° 261° (W) 19:20:41 145.90 MHz
STRAND 1 30 Sep 19:13:16 19:16:08 15° 94° (E) 19:19:00 ?
KITSAT 1 30 Sep 19:40:42 19:46:19 20° 311° (NW) 19:51:59 435.175 FM
OPAL 30 Sep 19:51:43 19:54:21 14° 296° (WNW) 19:56:58 ?
PANSAT 30 Sep 19:58:34 20:01:55 28° 162° (SSE) 20:05:15 not established
Sapphire 30 Sep 20:03:34 20:08:59 67° 64° (ENE) 20:14:21 437.095 MHz 1200 baud AX-25 AFSK
SO-50 30 Sep 20:10:04 20:14:27 61° 299° (WNW) 20:18:57 436.795 FM
SO-67 30 Sep 20:11:36 20:15:00 62° 260° (W) 20:18:25 435.3500 MHz FM
PCSat 30 Sep 20:29:16 20:34:38 63° 248° (WSW) 20:39:57 145.825 MHz
UOSAT-12 30 Sep 20:41:44 20:44:58 19° 109° (ESE) 20:48:16 437.025 FM, 437.400 FM
STRAND 1 30 Sep 20:50:33 20:55:29 48° 287° (WNW) 21:00:24 ?
ISS 30 Sep 21:27:37 21:29:57 18° 127° (SE) 21:32:18 145.800 FM
Oscar 11 30 Sep 21:30:44 21:32:34 13° 68° (ENE) 21:34:24 145.825 FM, Beacon 2401.500 USB
HO-68 30 Sep 21:33:24 21:40:26 65° 72° (ENE) 21:47:29 435.675 MHz FM
PANSAT 30 Sep 21:38:02 21:41:50 56° 174° (S) 21:45:37 not established
Sapphire 30 Sep 21:50:04 21:51:44 11° 257° (WSW) 21:53:24 437.095 MHz 1200 baud AX-25 AFSK
UKube-1 30 Sep 21:57:25 22:01:23 36° 73° (ENE) 22:05:21 145.840 MHz, 145.915 MHz
UOSAT-12 30 Sep 22:20:39 22:24:50 34° 303° (WNW) 22:29:05 437.025 FM, 437.400 FM
ZACube-1 30 Sep 22:36:28 22:40:23 30° 72° (ENE) 22:44:24 437.345 MHz
ISS 30 Sep 23:03:33 23:06:28 28° 320° (NW) 23:09:24 145.800 FM
Oscar 11 30 Sep 23:04:10 23:08:18 43° 261° (W) 23:12:29 145.825 FM, Beacon 2401.500 USB
PANSAT 30 Sep 23:18:05 23:21:51 54° 187° (S) 23:25:37 not established
HO-68 30 Sep 23:23:57 23:28:29 18° 265° (W) 23:33:03 435.675 MHz FM
FUNcube-1 30 Sep 23:26:58 23:31:25 66° 259° (W) 23:35:59 145.950 - 145.970 MHz USB
UKube-1 30 Sep 23:35:22 23:37:38 14° 265° (W) 23:39:55 145.840 MHz, 145.915 MHz
Saudisat 1A 30 Sep 23:53:12 23:57:19 37° 58° (ENE) 00:01:25 436.775 MHz
AO-40 01 Oct 00:07:11 01:38:42 26° 233° (SW) 04:44:44 Beacon 2401.320
ZACube-1 01 Oct 00:13:36 00:16:46 19° 265° (W) 00:19:59 437.345 MHz
Oscar 10/S400 01 Oct 00:21:20 18:46:54 76° 168° (SSE) 02:59:24 145.825 - 145.975 CW/USB, Beacon 145.810 USB
PANSAT 01 Oct 00:58:31 01:01:44 25° 199° (SSW) 01:04:56 not established
RS-15 01 Oct 01:02:45 01:08:52 17° 101° (E) 01:14:52 29.354 - 29.394 USB, Beacon 29.352 USB
Saudisat 1A 01 Oct 01:33:56 01:36:32 16° 251° (WSW) 01:39:08 436.775 MHz
KITSAT 1 01 Oct 01:43:32 01:48:08 16° 45° (NE) 01:52:42 435.175 FM
Oscar 19 01 Oct 02:21:34 02:25:55 28° 97° (E) 02:30:15 437.125 CW, 437.150 USB
ITAMSAT 1 01 Oct 02:34:23 02:36:59 14° 94° (E) 02:39:35 435.822 SSB
Uribyol 2 01 Oct 02:34:59 02:37:58 15° 94° (E) 02:40:57 436.500 FM
Oscar 16 01 Oct 03:01:58 03:07:08 80° 103° (ESE) 03:12:14 437.025 USB, Beacon 2401.1428
RS-15 01 Oct 03:08:34 03:19:44 89° 296° (WNW) 03:30:42 29.354 - 29.394 USB, Beacon 29.352 USB
AO-27 01 Oct 03:10:54 03:15:41 36° 99° (E) 03:20:27 436.795 MHz FM
AO-Echo 01 Oct 03:12:56 03:17:50 48° 100° (E) 03:22:51 ?
JAS-1B 01 Oct 03:33:11 03:38:58 80° 103° (ESE) 03:45:26 435.800 - 435.900 CW/SSB
Gurwin Techsat 1B 01 Oct 03:34:51 03:39:25 29° 97° (E) 03:43:58 435.225 FM
KITSAT 1 01 Oct 03:36:35 03:44:42 82° 64° (ENE) 03:52:46 435.175 FM
Oscar 19 01 Oct 04:00:54 04:05:06 26° 290° (WNW) 04:09:17 437.125 CW, 437.150 USB
TMSAT-1 01 Oct 04:03:16 04:08:16 41° 99° (E) 04:13:13 436.925 FM
ITAMSAT 1 01 Oct 04:11:37 04:16:42 53° 286° (WNW) 04:21:45 435.822 SSB
Uribyol 2 01 Oct 04:12:36 04:17:37 48° 287° (WNW) 04:22:36 436.500 FM
Uosat F 01 Oct 04:37:55 04:38:47 10° 93° (E) 04:39:39 435.120 FM
SO-50 01 Oct 04:47:03 04:51:14 28° 56° (NE) 04:55:25 436.795 FM
AO-27 01 Oct 04:51:02 04:54:54 21° 292° (WNW) 04:58:46 436.795 MHz FM
AO-7 01 Oct 04:53:10 05:00:10 30° 98° (E) 05:07:07 29.400 - 29.500 MHz
AO-Echo 01 Oct 04:53:12 04:56:11 16° 292° (WNW) 04:59:14 ?
Gurwin Techsat 1B 01 Oct 05:14:50 05:19:13 27° 290° (WNW) 05:23:35 435.225 FM
OPAL 01 Oct 05:20:23 05:25:24 52° 72° (ENE) 05:30:28 ?
RS-15 01 Oct 05:25:38 05:33:35 22° 318° (NW) 05:41:33 29.354 - 29.394 USB, Beacon 29.352 USB
KITSAT 1 01 Oct 05:34:52 05:39:06 15° 258° (WSW) 05:43:20 435.175 FM
ISS 01 Oct 05:36:27 05:39:07 22° 38° (NE) 05:41:46 145.800 FM
MaSat-1 01 Oct 05:36:34 05:41:05 39° 107° (ESE) 05:45:31 437.345 MHz
